Hauptseite
METAR-TAF:

METAR-TAF

Flughäfen :

Bohrplattform

Awg-1, Niederlande

Breite: 53-29-30N, Länge: 5-56-30E, Höhe: 33 m

Beobachtung

Neuester Wetterbericht von vor 1 Stunde und 33 Minuten, um 06:55 UTC
Wind 12 kt aus unterschiedlichen Richtungen
Temperatur 13°C
Luftfeuchtigkeit 88%
Luftdruck 999 hPa
Sichtweite: 6000 m
Leicht bewölkt in der Höhe von 700 ft
Aufgelockert bewölkt in der Höhe von 1900 ft
Leichtregen

METAR: EHMA 240655Z AUTO VRB12KT 6000 -RA FEW007 SCT019 13/11 Q0999 RERA REDZ

Zeit: 10:28 (08:28 UTC)


TAF: fehlend

Wetterbeobachtungen und Prognosen von mehr als 4000 Flughäfen (METAR und TAF Bericht).

Die verfügbaren Stationen werden durch gelbe und rote Markierungen auf der Karte dargestellt.

Führen Sie die Maus auf sie, um den Namen der Station zu sehen.

Darauf klicken, um die Beobachtung von Wetterbeobachtungen und Prognosen zu sehen.

Um die Karte zu ändern : klicken Sie auf den grünen Tasten mit einem schwarzen Kreuz Zum Vergrößern, auf den grünen Button mit einem Gedankenstrich zu verkleinern, oder auf die grünen Pfeile für benachbarte Karten.


METAR-TAF: